Home   Weather   Cleveland   Past weeks

Flag for USA Past Weather in Cleveland, Ohio, USA — Yesterday and Last 2 Weeks

Now
59 °F

Light rain. Fog.


Feels Like: 59 °F
Forecast: 57 / 65 °F
Wind: 5 mph from West

Location: Cleveland-Hopkins International Airport

Current Time: May 25, 2017 at 9:38:08 pm

Latest Report: May 25, 2017 at 9:18 pm


Visibility: 2 mi

Pressure: 29.56 "Hg

Humidity: 93%

Dew Point: 57 °F

Location of ClevelandLocation

Past Weather in Cleveland — Graph

°F

Cleveland Temperature Yesterday

Maximum temperature yesterday: 68 °F (at 10:51 am)
Minimum temperature yesterday: 62 °F (at 3:29 am)
Average temperature yesterday: 64 °F

High & Low Weather Summary for the Past Weeks

 TemperatureHumidityPressure
High89 °F (May 17, 3:51 pm)93% (May 13, 7:24 am)30.21 "Hg (May 13, 7:24 am)
Low42 °F (May 13, 5:30 am)24% (May 15, 5:51 pm)29.44 "Hg (May 25, 3:51 am)
Average63 °F65%29.90 "Hg
* Reported May 10 7:51 pm — May 25 7:51 pm, Cleveland. Weather by CustomWeather, © 2017

Note: Actual official high and low records may vary slightly from our data, if they occured in-between our weather recording intervals... More about our weather records

Advertising

Cleveland Weather History for the Previous 24 Hours

Scroll right to see more
 ConditionsComfort  
Time TempWeatherWind HumidityBarometerVisibility
7:51 pm
Thu, May 25
61 °FOvercast.6 mph87%29.52 "Hg10 mi
6:51 pm62 °FLight rain. Mostly cloudy.No wind86%29.51 "Hg10 mi
5:51 pm62 °FLight rain. Overcast.5 mph90%29.49 "Hg10 mi
4:51 pm62 °FLight rain. More clouds than sun.5 mph83%29.48 "Hg6 mi
3:51 pm61 °FLight rain. Fog.6 mph90%29.48 "Hg3 mi
3:37 pm61 °FLight rain. Fog.6 mph87%29.49 "Hg3 mi
3:04 pm62 °FLight rain. Fog.3 mph86%29.50 "Hg4 mi
1:51 pm62 °FLight rain. Fog.5 mph86%29.48 "Hg4 mi
1:36 pm62 °FRain. Fog.6 mph90%29.49 "Hg3 mi
12:51 pm62 °FLight rain. Fog.6 mph90%29.47 "Hg4 mi
11:58 am62 °FLight rain. Mostly cloudy.6 mph86%29.48 "Hg9 mi
10:51 am62 °FLight rain. Fog.5 mph86%29.46 "Hg6 mi
9:51 am62 °FLight rain. Mostly cloudy.7 mph86%29.47 "Hg8 mi
9:03 am62 °FLight rain. More clouds than sun.7 mph86%29.47 "Hg9 mi
8:32 am62 °FLight rain. Mostly cloudy.6 mph86%29.47 "Hg10 mi
7:51 am62 °FLight rain. Overcast.6 mph86%29.44 "Hg10 mi
6:51 am62 °FLight rain. Cloudy.7 mph83%29.44 "Hg10 mi
6:27 am62 °FBroken clouds.7 mph83%29.45 "Hg10 mi
6:00 am62 °FCloudy.9 mph83%29.46 "Hg10 mi
4:51 am62 °FOvercast.10 mph80%29.44 "Hg10 mi
3:51 am63 °FMostly cloudy.14 mph78%29.44 "Hg10 mi
2:51 am62 °FMostly cloudy.10 mph80%29.45 "Hg10 mi
2:09 am62 °FMostly cloudy.14 mph80%29.47 "Hg10 mi
1:51 am63 °FMostly cloudy.10 mph78%29.46 "Hg10 mi
12:51 am62 °FMostly cloudy.10 mph83%29.47 "Hg10 mi
11:51 pm
Wed, May 24
62 °FMostly cloudy.14 mph83%29.48 "Hg10 mi
11:35 pm62 °FMostly cloudy.14 mph83%29.49 "Hg10 mi
10:51 pm63 °FOvercast.17 mph81%29.48 "Hg10 mi
9:59 pm63 °FMostly cloudy.13 mph84%29.50 "Hg10 mi
9:28 pm63 °FOvercast.14 mph84%29.52 "Hg10 mi
Weather by CustomWeather, © 2017

See weather overviewHow to use our weather pages